AirNav   Pilot Hours Calculator
 
 724 users online  

4K3 Lexington Municipal Airport
Lexington, Missouri, USA

GOING TO LEXINGTON?


FAA INFORMATION EFFECTIVE 25 APRIL 2019

Location

FAA Identifier: 4K3
Lat/Long: 39-12-35.6000N / 093-55-39.8000W
39-12.593333N / 093-55.663333W
39.2098889 / -93.9277222
(estimated)
Elevation: 691 ft. / 210.6 m (surveyed)
Variation: 04E (1985)
From city: 3 miles NW of LEXINGTON, MO
Time zone: UTC -5 (UTC -6 during Standard Time)
Zip code: 64036

Airport Operations

Airport use: Open to the public
Activation date: 12/1945
Control tower: no
ARTCC: KANSAS CITY CENTER
FSS: COLUMBIA FLIGHT SERVICE STATION
NOTAMs facility: COU (NOTAM-D service available)
Attendance: IRREGULAR 24 HOURS/DAY
Wind indicator: yes
Segmented circle: no
Lights: RWY 4/22 LIRL OTS INDEFLY.
Beacon: white-green (lighted land airport)
ROTATING BCN OTS INDEFLY

Airport Communications

CTAF/UNICOM: 122.7
WX AWOS-3 at GPH (19 nm NW): 120.275 (816-407-3399)
  • APCH/DEP SERVICE PROVIDED BY KANSAS CITY ARTCC ON FREQS 135.575/323.15 (KNOB NOSTER RCAG).

Nearby radio navigation aids

VOR radial/distance  VOR name  Freq  Var
ANXr047/11.6NAPOLEON VORTAC114.0007E
BQSr183/25.4BRAYMER VOR/DME111.2003E
MCIr092/37.9KANSAS CITY VORTAC113.2505E

 
NDB name  Hdg/Dist  Freq  Var  ID
MARSHALL283/35.537103EPUR .--. ..- .-.

Airport Services

Parking: hangars and tiedowns
Bottled oxygen: NONE
Bulk oxygen: NONE

Runway Information

Runway 4/22

Dimensions: 2925 x 40 ft. / 892 x 12 m
Surface: asphalt, in good condition
RY 04/22 ROUGH, LARGE PITS IN SFC, CRACKS.
Runway edge lights: low intensity
RUNWAY 4  RUNWAY 22
Latitude: 39-12.414867N39-12.770117N
Longitude: 093-55.818150W093-55.399750W
Elevation: 691.0 ft.689.0 ft.
Traffic pattern: leftleft
Runway heading: 038 magnetic, 042 true218 magnetic, 222 true
Markings: NSTD, in poor conditionNSTD, in poor condition
Touchdown point: yes, no lightsno, no lights
Obstructions: 15 ft. road, 430 ft. from runway, 16:1 slope to clearnone

Runway 13/31

Dimensions: 3100 x 125 ft. / 945 x 38 m
Surface: turf, in good condition
RUNWAY 13  RUNWAY 31
Latitude: 39-12.784217N39-12.415330N
Longitude: 093-55.819643W093-55.365503W
Elevation: 690.0 ft.690.0 ft.
Traffic pattern: leftleft
Runway heading: 132 magnetic, 136 true312 magnetic, 316 true
Obstructions: 25 ft. pline, marked, 330 ft. from runway, 150 ft. left and right of centerline, 13:1 slope to clear15 ft. road, 270 ft. from runway, 140 ft. left and right of centerline, 18:1 slope to clear

Runway 18/36

Dimensions: 2250 x 125 ft. / 686 x 38 m
Surface: turf, in good condition
RUNWAY 18  RUNWAY 36
Latitude: 39-12.769533N39-12.398467N
Longitude: 093-55.829917W093-55.829917W
Elevation: 690.0 ft.690.0 ft.
Traffic pattern: leftleft
Runway heading: 176 magnetic, 180 true356 magnetic, 000 true
Obstructions: none15 ft. road, 227 ft. from runway, 15:1 slope to clear

Airport Ownership and Management from official FAA records

Ownership: Privately-owned
Owner: DAVID EDWARDS
11215 GREAT CANADIAN LANE
RICHMOND, MO 64085
Phone (816) 752-5333
Manager: DAVID EDWARDS
11215 GREAT CANADIAN LANE
RICHMOND, MO 64085
Phone (816) 752-5333

Airport Operational Statistics

Aircraft based on the field: 2
Single engine airplanes: 2
  • ULTRALIGHT ACTIVITY & RADIO CONTROLLED AIRPLANES ON & INVOF ARPT.
    
Aircraft operations: avg 92/week *
58% local general aviation
31% transient general aviation
5% military
5% air taxi
* for 12-month period ending 31 December 2015

Additional Remarks

SPORT AVIATION ACTIVITIES IN PROGRESS ON WEEKENDS.
MIGRATORY BIRDS INVOF ARPT DURING SPRING AND FALL.
NTSD RWY SAFETY AREA RWY22; INCORRECT TERRAIN GRADES.

Instrument Procedures

There are no published instrument procedures at 4K3.

Some nearby airports with instrument procedures:

KHIG - Higginsville Industrial Municipal Airport (14 nm SE)
3EX - Excelsior Springs Memorial Airport (15 nm NW)
3GV - East Kansas City Airport (18 nm SW)
KGPH - Midwest National Air Center Airport (19 nm NW)
KLXT - Lee's Summit Municipal Airport (26 nm SW)
 
Loc | Ops | Rwys | IFR | FBO | Links
Com | Nav | Svcs | Stats | Notes

Kansas City Aviation Department
 
Area around 4K3 (Lexington Municipal Airport)
 
Road maps at: MapQuest Bing Google
 
Aerial photo
WARNING: Photo may not be current or correct
Aerial photo of 4K3 (Lexington Municipal Airport)
Do you have a better or more recent aerial photo of Lexington Municipal Airport that you would like to share? If so, please send us your photo.

 
Sectional chart

 
Airport distance calculator
Flying to Lexington Municipal Airport? Find the distance to fly.

From to 4K3

Sunrise and sunset
Times for 21-May-2019
 Local
(UTC-5)
 Zulu
(UTC)
Morning civil twilight05:2810:28
Sunrise05:5810:58
Sunset20:2601:26
Evening civil twilight20:5701:57

Current date and time
Zulu (UTC)  21-May-2019 11:54:16
Local (UTC-5)  21-May-2019 06:54:16
 
METAR
KGPH 
19nm NW 
211015Z AUTO 11016G25KT 10SM -RA OVC009 10/08 A2977 RMK AO2
KLXT 
25nm SW 
211053Z AUTO 11008G18KT 10SM -RA OVC005 10/08 A2976 RMK AO2 PK WND 11030/1012 RAE04B53 SLP079 P0001 T01000083
KRCM 
26nm S 
211135Z AUTO 08014G18KT 10SM OVC007 09/08 A2975 RMK AO2
KMKC 
32nm W 
211054Z AUTO 13011G31KT 7SM RA OVC008 11/09 A2975 RMK AO2 PK WND 13031/1045 RAE08B20 PRESRR SLP075 P0002 T01060089
KMHL 
34nm E 
211135Z AUTO 29011G19KT 10SM OVC009 09/08 A2980 RMK AO2 TSNO
KSZL 
35nm SE 
211131Z 09008G16KT 10SM OVC005 10/10 A2971 RMK AO2A DZE01DZB21E31 SLP064 $
KEZZ 
35nm NW 
211135Z AUTO 11005KT 10SM -RA OVC008 09/08 A2983 RMK AO2 T00930080
KMCI 
38nm W 
211053Z 14014G35KT 10SM OVC006 10/09 A2973 RMK AO2 PK WND 13045/1022 WSHFT 1006 RAE51 SLP068 P0002 T01000089 $
TAF
KMKC 
32nm W 
210926Z 2109/2206 11012G18KT P6SM -RA OVC012 FM211100 10018G25KT 6SM SHRA BR OVC012 FM211600 11015KT 5SM -TSRA BR OVC010CB FM211900 12015KT P6SM VCTS OVC015CB FM212300 15012G22KT P6SM VCSH OVC035
KSZL 
35nm SE 
210300Z 2103/2209 04012G20KT 4800 RA BKN002 BKN100 QNH2984INS TEMPO 2103/2108 VRB15G30KT 3200 -TSRA OVC002CB BECMG 2113/2114 09012G18KT 4800 -RA BKN010 OVC020 QNH2964INS TEMPO 2115/2122 VRB15G30KT 3200 -TSRA OVC005CB BECMG 2123/2124 18012KT 9999 NSW SCT030 BKN100 QNH2953INS TX22/2118Z TN09/2103Z
KMCI 
38nm W 
210943Z 2110/2206 12027G44KT P6SM -RA OVC008 FM211100 10020G30KT 5SM SHRA BR OVC008 FM211300 11018KT 6SM -TSRA BR OVC008CB TEMPO 2113/2115 VRB20G40KT 2SM TSRA BKN015CB FM211700 12018KT P6SM VCTS OVC015CB FM212300 15015G25KT P6SM VCSH OVC035
NOTAMs
Click for the latest NOTAMs
NOTAMs are issued by the DoD/FAA and will open in a separate window not controlled by AirNav.

 

 
 

Would you like to see your business listed on this page?

 If your business provides an interesting product or service to pilots, flight crews, aircraft, or users of the Lexington Municipal Airport, you should consider listing it here.  To start the listing process, click on the button below
 
Add a business
 

Other Pages about Lexington Municipal Airport

Update a link
 
Copyright © AirNav, LLC. All rights reserved. Privacy Policy  Contact